Terug naar catalogus

STARLINK-34761

ActiefCommunicatieSSO
NORAD 64954·PAYLOAD·🇺🇸 United States

Gelanceerd Jul 26, 2025 vanaf Vandenberg Space Force Base

Loading…

Volgende Passages (komende 24 uur)

TLE

VersSource: CelesTrak SupGP

Epoch: Sep 14, 2026, 20:52 UTC

1 64954C 25158Y   26257.86993056  .00004163  00000+0  12926-3 0  2570
2 64954  97.2847 116.2188 0002003  84.9399 181.4370 15.33424476    15

Volg STARLINK-34761 in realtime met AllMySat

Download on the App Store